Location: ??????
(44.5958°N, 34.0092°E)
Time: 20:42:39
(UTC+00:00)

Shenzhou-11 Module - Pass Details

Date: 06 June 2020
Orbit: 263 x 284 km, 42.8° (Epoch: 11 July)

Event Time Altitude Azimuth Distance (km) Brightness Sun altitude
Exits shadow 00:56:07 13° 259° (W) 922 3.5 -9.5°
Maximum altitude 00:58:06 54° 182° (S) 329 1.4 -9.3°
Drops below altitude 10° 01:00:25 10° 103° (ESE) 1,067 4.8 -9.0°
Sets 01:02:21 0° 99° (E) 1,880 6.1 -8.8°
